{"data":{"norad_id":25019,"epoch":"2026-09-19T08:34:01.941024Z","epoch_age_seconds":109899,"freshness":"FRESH","line1":"1 25019U 97065A   26262.35696691 -.00000063  00000+0  00000+0 0  9995","line2":"2 25019  12.8956  20.9959 0002669 267.7934  85.7581  1.00269773 33897","mean_motion":1.00269773,"eccentricity":0.0002669,"inclination_deg":12.8956,"raan_deg":20.9959,"arg_perigee_deg":267.7934,"mean_anomaly_deg":85.7581,"bstar":0,"rev_number":3389,"period_min":1436.1257205599,"perigee_km":35775.905089756,"apogee_km":35798.412924764,"semimajor_km":42165.29600726,"source":"CELESTRAK","updated_at":"2026-09-20T09:00:35.116641Z"}}